Regional Weather Roundup
Issued by NWS

Home | Current Version | Previous Version | Graphics & Text | Print | Product List | Glossary On
Versions: 1 2 3 4 5 6 7 8 9 10 11 12 13 14 15 16 17 18 19 20 21 22 23 24 25 26 27
000
ASUS45 KBOU 251507
RWRCO

WEATHER ROUNDUP FOR COLORADO
NATIONAL WEATHER SERVICE DENVER/BOULDER CO
900 AM MDT WED MAY 25 2016

NOTE: "FAIR" INDICATES FEW OR NO CLOUDS BELOW 12000 FEET WITH NO
SIGNIFICANT WEATHER AND/OR OBSTRUCTIONS TO VISIBILITY.

COZ001>005-013-030-031-251600-
...NORTHWEST COLORADO...

CITY           SKY/WX    TMP DP  RH WIND       PRES   REMARKS
CRAIG          FAIR      53  37  54 N5        30.07S
HAYDEN         FAIR      50  34  53 NE3       30.08S
MEEKER         FAIR      55  34  45 CALM      30.08
MOUNT WERNER   NOT AVBL
STEAMBOAT SPGS FAIR      48  35  59 CALM      30.08S
WALDEN         FAIR      50  21  32 SW26G33   30.10S
$$

COZ006>008-011-251600-
...WEST CENTRAL VALLEYS...

CITY           SKY/WX    TMP DP  RH WIND       PRES   REMARKS
GRAND JUNCTION FAIR      60  26  27 NE3       30.05S
MONTROSE       FAIR      59  25  27 S3        30.11S
EAGLE          MOSUNNY   55  27  33 CALM      30.11F
RIFLE          FAIR      57  33  40 NE3       30.07S
DELTA          FAIR      61  24  23 NE5       30.08S
NUCLA          FAIR      59  23  25 CALM      30.15S
$$

COZ017>023-064>068-251600-
...SOUTHWEST COLORADO...

CITY           SKY/WX    TMP DP  RH WIND       PRES   REMARKS
DURANGO        FAIR      53  22  29 CALM      30.18R
CORTEZ         FAIR      58  25  28 CALM      30.14S
PAGOSA SPRINGS FAIR      52  15  22 S6        30.22S
TELLURIDE      FAIR      48  16  28 CALM      30.24S
WOLF CREEK PAS FAIR      32  14  47 SW21G26   30.36S WCI  20
$$

COZ009-010-012-014-032>034-037-058>063-251600-
...CENTRAL COLORADO...

CITY           SKY/WX    TMP DP  RH WIND       PRES   REMARKS
ASPEN          FAIR      54  24  31 VRB5      30.12S
BUENA VISTA    FAIR      55   9  16 W15G21    30.14S
COPPER MTN     NOT AVBL
BERTHOUD PASS  FAIR      28  19  69 W17       30.26S WCI  16
COTTONWOOD PAS FAIR      48   7  18 SW15G29   30.21S
GUNNISON       FAIR      52  21  30 E5        30.18F
KREMMLING      FAIR      52  30  43 CALM      30.11F
LEADVILLE      FAIR      44   7  21 W9        30.19S
MONARCH PASS   FAIR      32  14  47 SW22      30.40R WCI  19
SALIDA         FAIR      58  13  17 W10G18    30.21S
SUNLIGHT       CLOUDY    39  25  56 CALM      30.28R
WILKERSON PASS FAIR      37  10  32 SW10G21   30.26R
$$

COZ069>075-251600-
...SAN LUIS VALLEY/SANGRE DE CRISTO MOUNTAINS...

CITY           SKY/WX    TMP DP  RH WIND       PRES   REMARKS
ALAMOSA        FAIR      55  15  20 S7        30.16S
LA VETA PASS   FAIR      45  10  24 S10G26    30.22R
SAGUACHE       FAIR      52  25  35 S8        30.17S
$$

COZ035-036-038>040-251600-
...NORTHERN COLORADO FRONT RANGE...

CITY           SKY/WX    TMP DP  RH WIND       PRES   REMARKS
DENVER INTL AP FAIR      57  43  59 E5        30.03R
DMNS CITY PARK   N/A     61  38  43 E7        30.03S
AURORA         MOSUNNY   58  42  53 NE8       30.04S
FRONT RANGE AP NOT AVBL
ERIE MUNI ARPT FAIR      58  42  55 CALM      30.03S
BOULDER MUN AP FAIR      59  37  44 SE7       30.03R
CENTENNIAL     FAIR      58  38  47 CALM      30.03F
BROOMFIELD     MOSUNNY   57  39  51 CALM      30.04S
FORT COLLINS   FAIR      54  41  62 S9        30.03S
LONGMONT       FAIR      61  38  43 SE8       30.04R
$$

COZ041-046-047-076>085-087-088-251600-
...PIKES PEAK/PALMER DIVIDE AND SOUTHERN FOOTHILLS...

CITY           SKY/WX    TMP DP  RH WIND       PRES   REMARKS
COLO. SPRINGS  FAIR      65  21  18 NW12      30.05R
A. F. ACADEMY  FAIR      61  32  33 VRB6      30.05S
SCHRIEVER AFB  NOT AVBL
ELLICOTT       FAIR     N/A N/A N/A NE12      30.03R
FALCON         FAIR      61  22  22 NW6       30.08R
FORT CARSON    FAIR      64  32  31 N1        30.02R
LIMON          PTSUNNY   58  50  75 NE7       30.02R
MONUMENT HILL  FAIR      54  36  50 CALM      30.10R
TRINIDAD       FAIR      67   4   8 VRB3      30.03R
$$

COZ042>045-048>051-090-091-251600-
...NORTHEAST COLORADO...

CITY           SKY/WX    TMP DP  RH WIND       PRES   REMARKS
GREELEY ARPT   FAIR      61  46  59 S3        30.02R
AKRON          CLOUDY    57  53  86 SE10      29.99F
BURLINGTON     CLOUDY    58  53  84 NE8       29.96R
WRAY           NOT AVBL
STERLING       FAIR      61  54  77 SW3       29.98S
HOLYOKE        PTSUNNY   64  50  59 S6        29.97R
FORT MORGAN    CLOUDY    58  50  75 SE3       30.02R
$$

COZ086-089-092>099-251600-
...SOUTHEAST COLORADO...

CITY           SKY/WX    TMP DP  RH WIND       PRES   REMARKS
PUEBLO         FAIR      70  35  27 E9        29.98R
LA JUNTA       FAIR      66  47  50 N13       29.97R
LAMAR          FAIR      63  53  70 N8        29.93R
SPRINGFIELD      N/A     75  22  13 NW13      29.96R
$$




USA.gov is the U.S. government's official web portal to all federal, state and local government web resources and services.